Home   Weather   Juneau   Past weeks

Flag for USA Past Weather in Juneau, Alaska, USA — Yesterday and Last 2 Weeks

Now
43 °F

Passing clouds.


Feels Like: 43 °F
Forecast: 37 / 62 °F
Wind: No wind

Location: Juneau International Airport

Current Time: May 27, 2017 at 7:42:35 am

Latest Report: May 27, 2017 at 6:53 am


Visibility: 10 mi

Pressure: 30.24 "Hg

Humidity: 82%

Dew Point: 38 °F

Location of JuneauLocation

Past Weather in Juneau — Graph

°F

Juneau Temperature Yesterday

Maximum temperature yesterday: 57 °F (at 3:53 pm)
Minimum temperature yesterday: 41 °F (at 11:53 pm)
Average temperature yesterday: 50 °F

High & Low Weather Summary for the Past Weeks

 TemperatureHumidityPressure
High69 °F (May 16, 2:53 pm)100% (May 12, 9:53 pm)30.25 "Hg (May 12, 9:53 pm)
Low37 °F (May 16, 4:53 am)29% (May 16, 2:53 pm)29.63 "Hg (May 14, 5:53 pm)
Average50 °F83%29.96 "Hg
* Reported May 12 5:53 am — May 27 5:53 am, Juneau. Weather by CustomWeather, © 2017

Note: Actual official high and low records may vary slightly from our data, if they occured in-between our weather recording intervals... More about our weather records

Advertising

Juneau Weather History for the Previous 24 Hours

Scroll right to see more
 ConditionsComfort  
Time TempWeatherWind HumidityBarometerVisibility
5:53 am
Sat, May 27
38 °FPassing clouds.No wind97%30.24 "Hg10 mi
4:53 am37 °FPassing clouds.No wind93%30.23 "Hg10 mi
3:53 am38 °FClear.No wind93%30.23 "Hg10 mi
2:53 am38 °FClear.No wind93%30.22 "Hg10 mi
1:53 am38 °FClear.No wind93%30.23 "Hg10 mi
12:53 am39 °FClear.No wind93%30.22 "Hg10 mi
11:53 pm
Fri, May 26
41 °FClear.No wind86%30.22 "Hg10 mi
10:53 pm42 °FClear.No wind82%30.20 "Hg10 mi
9:53 pm48 °FPassing clouds.5 mph61%30.19 "Hg10 mi
8:53 pm52 °FPassing clouds.6 mph49%30.17 "Hg10 mi
7:53 pm54 °FPassing clouds.9 mph51%30.17 "Hg10 mi
6:53 pm55 °FPassing clouds.9 mph45%30.17 "Hg10 mi
5:53 pm56 °FPassing clouds.10 mph42%30.17 "Hg10 mi
4:53 pm57 °FPassing clouds.8 mph41%30.16 "Hg10 mi
3:53 pm57 °FScattered clouds.10 mph41%30.16 "Hg10 mi
2:53 pm56 °FPartly sunny.9 mph42%30.17 "Hg10 mi
1:53 pm56 °FPartly sunny.12 mph42%30.16 "Hg10 mi
12:53 pm54 °FBroken clouds.8 mph45%30.16 "Hg10 mi
11:53 am52 °FPartly sunny.9 mph49%30.15 "Hg10 mi
10:53 am51 °FPartly sunny.10 mph54%30.15 "Hg10 mi
9:53 am50 °FBroken clouds.12 mph59%30.15 "Hg10 mi
8:53 am49 °FBroken clouds.9 mph69%30.15 "Hg10 mi
Weather by CustomWeather, © 2017

See weather overviewHow to use our weather pages